Location: Novokuznetsk
(53.7500°N, 87.1000°E)
Time: 02:20:41
(UTC+06:00)

ISS - Pass Details

Date: 15 July 2018
Orbit: 402 x 408 km, 51.6° (Epoch: 20 July)

Event Time Altitude Azimuth Distance (km) Brightness Sun altitude
Exits shadow 02:44:35 - 264° (W) 2,125 -0.6 -8.3°
Reaches altitude 10° 02:46:11 10° 261° (W) 1,470 -1.4 -8.1°
Maximum altitude 02:49:26 60° 181° (S) 471 -3.8 -7.9°
Drops below altitude 10° 02:52:42 10° 101° (E) 1,473 -0.6 -7.6°
Sets 02:54:48 0° 98° (E) 2,334 0.5 -7.4°
